This demonstration page uses our WeatherBlox Daily Observations layout. Learn more.

Left ArrowRight Arrow

39.01783, -85.05884

Hourly Observations for November 7, 2021

Temp ( °F °C ) Dew Point ( °F °C ) Humidity (%) Winds ( mph kmh ) Pressure ( in mb ) Visibility ( mi km ) Precip ( " mm )
12:52 am 00:52 Clear 39 3.9 29 -1.7 67 67 N N/A 30.21 1023 10 16 N/A
1:52 am 01:52 Clear 37 2.8 28 -2.2 70 70 N N/A 30.22 1023 10 16 N/A
1:52 am 01:52 Clear 36 2.2 29 -1.7 76 76 N N/A 30.21 1023 10 16 N/A
2:52 am 02:52 Clear 33 0.6 27 -2.8 78 78 N N/A 30.20 1023 10 16 N/A
3:52 am 03:52 Clear 35 1.7 29 -1.7 78 78 N N/A 30.21 1023 10 16 N/A
4:52 am 04:52 Clear 34 1.1 29 -1.7 82 82 N N/A 30.21 1023 10 16 N/A
5:52 am 05:52 Clear 31 -0.6 28 -2.2 89 89 N N/A 30.24 1024 7 11 N/A
6:52 am 06:52 Clear 34 1.1 28 -2.2 79 79 N N/A 30.25 1024 9 14 N/A
7:52 am 07:52 Sunny with Mist and Fog 32 undefined 28 -2.2 85 85 N N/A 30.26 1025 5 8 N/A
8:52 am 08:52 Sunny 40 4.4 34 1.1 79 79 N N/A 30.27 1025 7 11 N/A
9:52 am 09:52 Mostly Sunny 47 8.3 36 2.2 66 66 N N/A 30.27 1025 7 11 N/A
10:52 am 10:52 Sunny 55 12.8 35 1.7 47 47 N N/A 30.27 1025 9 14 N/A
11:52 am 11:52 Sunny 58 14.4 32 undefined 38 38 WNW 5 7 30.26 1025 10 16 N/A
12:52 pm 12:52 Mostly Sunny 59 15 32 undefined 36 36 VRB 5 7 30.24 1024 10 16 N/A
1:52 pm 13:52 Mostly Sunny 61 16.1 33 0.6 35 35 WSW 3 6 30.23 1024 10 16 N/A
2:52 pm 14:52 Mostly Sunny 61 16.1 30 -1.1 31 31 SW 5 7 30.21 1023 10 16 N/A
3:52 pm 15:52 Mostly Sunny 61 16.1 33 0.6 35 35 S 6 9 30.21 1023 10 16 N/A
4:52 pm 16:52 Partly Cloudy 59 15 35 1.7 41 41 SSW 6 9 30.20 1023 10 16 N/A
5:52 pm 17:52 Partly Cloudy 54 12.2 34 1.1 47 47 S 6 9 30.21 1023 10 16 N/A
6:52 pm 18:52 Partly Cloudy 53 11.7 32 undefined 45 45 SW 3 6 30.24 1024 10 16 N/A
7:52 pm 19:52 Mostly Clear 50 10 33 0.6 52 52 S 3 6 30.23 1024 10 16 N/A
8:52 pm 20:52 Mostly Clear 45 7.2 34 1.1 66 66 S 5 7 30.22 1024 10 16 N/A
9:52 pm 21:52 Partly Cloudy 43 6.1 34 1.1 71 71 S 3 6 30.22 1023 10 16 N/A
10:52 pm 22:52 Mostly Clear 43 6.1 33 0.6 68 68 S 3 6 30.22 1023 10 16 N/A
11:52 pm 23:52 Clear 47 8.3 33 0.6 59 59 N N/A 30.21 1023 10 16 N/A

Powered by AerisWeather